F4ELU-13 Weather Reports


Display with metric or nautical units.
time (UTC)temp
F
wind
direction
speed
MPH
gust
MPH
rain 1hr
in
rain 24hr
in
rain mn
in
humidity
%
barometer
mb
20260507164503 65 67 1.0 4.0 0.00 0.00 0.00 54 1012.7
20260507163603 65 31 1.0 7.0 0.00 0.00 0.00 53 1012.7
20260507162703 65 79 3.0 6.0 0.00 0.00 0.00 57 1012.8
20260507161803 65 69 1.0 6.0 0.00 0.00 0.00 54 1012.7
20260507160903 64 30 2.0 4.0 0.00 0.00 0.00 55 1012.8
20260507160003 65 30 2.0 4.0 0.00 0.00 0.00 54 1012.8
20260507155403 66 74 1.0 4.0 0.00 0.00 0.00 55 1012.9
20260507154503 66 51 0.0 6.0 0.00 0.00 0.00 56 1012.8
20260507153603 65 48 1.0 4.0 0.00 0.00 0.00 57 1012.8
20260507152703 64 38 2.0 4.0 0.00 0.00 0.00 58 1013.0
20260507151803 63 26 0.0 4.0 0.00 0.00 0.00 56 1013.1
20260507150903 65 16 0.0 4.0 0.00 0.01 0.00 56 1013.0
20260507150003 66 32 1.0 6.0 0.00 0.01 0.00 56 1013.0
20260507145403 64 46 2.0 6.0 0.00 0.13 0.00 60 1013.1
20260507144503 64 27 0.0 6.0 0.00 0.28 0.00 62 1013.2
20260507143603 66 31 2.0 6.0 0.00 0.31 0.00 59 1013.2
20260507142703 64 85 0.0 2.0 0.00 0.31 0.00 56 1013.3
20260507141803 64 85 1.0 4.0 0.00 0.31 0.00 57 1013.4
20260507140903 65 124 2.0 7.0 0.00 0.31 0.00 61 1013.4
20260507140003 67 82 3.0 7.0 0.00 0.31 0.00 61 1013.5
20260507135403 66 47 0.0 4.0 0.00 0.31 0.00 57 1013.5
20260507134503 67 147 0.0 4.0 0.00 0.31 0.00 60 1013.6
20260507133603 65 106 0.0 2.0 0.00 0.31 0.00 61 1013.6
20260507132703 65 90 0.0 2.0 0.00 0.31 0.00 62 1013.7
20260507131803 64 56 0.0 2.0 0.00 0.31 0.00 65 1013.7
20260507130903 63 303 0.0 2.0 0.00 0.31 0.00 63 1013.8
20260507130005 63 32 0.0 4.0 0.00 0.31 0.00 62 1013.8
20260507130003 63 32 0.0 4.0 0.00 0.31 0.00 62 1013.8
20260507125459 63 64 0.0 4.0 0.00 0.31 0.00 64 1013.8
20260507125403 63 64 0.0 4.0 0.00 0.31 0.00 64 1013.8
20260507124614 64 103 0.0 4.0 0.00 0.31 0.00 63 1013.8
20260507124503 64 103 0.0 4.0 0.00 0.31 0.00 63 1013.8
20260507123603 65 91 2.0 4.0 0.00 0.31 0.00 61 1013.8
20260507122705 66 101 0.0 6.0 0.00 0.31 0.00 60 1013.8
20260507121803 65 95 4.0 6.0 0.00 0.31 0.00 60 1013.8
20260507120903 64 80 0.0 4.0 0.00 0.31 0.00 59 1013.9
20260507120003 66 110 0.0 6.0 0.00 0.31 0.00 60 1013.8
20260507115403 66 96 0.0 4.0 0.00 0.31 0.00 63 1014.0
20260507114504 64 83 2.0 7.0 0.00 0.31 0.00 62 1014.0
20260507113603 64 192 0.0 4.0 0.00 0.31 0.00 59 1014.1
20260507112703 66 113 1.0 4.0 0.00 0.31 0.00 59 1014.1
20260507111803 62 42 1.0 4.0 0.00 0.31 0.00 62 1014.1
20260507110903 63 26 0.0 4.0 0.00 0.31 0.00 63 1014.2
20260507110003 63 57 1.0 6.0 0.00 0.31 0.00 66 1014.2
20260507105403 64 104 0.0 6.0 0.00 0.31 0.00 66 1014.1
20260507104503 64 132 0.0 2.0 0.00 0.31 0.00 67 1014.3
20260507103603 64 78 0.0 6.0 0.00 0.31 0.00 62 1014.3
20260507102703 61 57 3.0 6.0 0.00 0.31 0.00 70 1014.3
20260507101803 63 50 0.0 4.0 0.00 0.31 0.00 72 1014.3
20260507100903 64 40 0.0 4.0 0.00 0.31 0.00 66 1014.3
20260507100003 61 51 0.0 4.0 0.00 0.31 0.00 72 1014.4
20260507095403 61 13 0.0 2.0 0.00 0.31 0.00 74 1014.4
20260507094503 61 84 0.0 4.0 0.00 0.31 0.00 73 1014.4
20260507093603 61 45 0.0 6.0 0.00 0.31 0.00 72 1014.4
20260507092703 62 92 1.0 6.0 0.00 0.31 0.00 71 1014.5
20260507091803 61 122 0.0 4.0 0.00 0.31 0.00 74 1014.3
20260507090903 59 67 1.0 4.0 0.00 0.31 0.00 79 1014.2
20260507090004 60 27 0.0 2.0 0.00 0.31 0.00 78 1014.3
20260507085403 59 101 0.0 6.0 0.00 0.31 0.00 78 1014.2
20260507084503 60 99 1.0 4.0 0.00 0.31 0.00 79 1014.2
20260507083603 59 127 1.0 4.0 0.00 0.31 0.00 78 1014.1
20260507082703 59 97 0.0 4.0 0.00 0.31 0.00 79 1014.2
20260507081803 59 75 0.0 2.0 0.00 0.31 0.00 78 1014.0
20260507080903 58 56 0.0 2.0 0.00 0.31 0.00 82 1014.0
20260507080003 56 0 0.0 0.0 0.00 0.31 0.00 84 1014.2
20260507075403 56 0 0.0 0.0 0.00 0.31 0.00 86 1014.1
20260507074503 57 0 0.0 0.0 0.00 0.31 0.00 84 1014.1
20260507073603 56 0 0.0 0.0 0.00 0.31 0.00 86 1014.1
20260507072703 56 0 0.0 0.0 0.00 0.31 0.00 84 1014.0
20260507071803 56 0 0.0 0.0 0.00 0.31 0.00 87 1014.0
20260507070903 56 0 0.0 0.0 0.00 0.31 0.00 87 1014.1
20260507070005 54 0 0.0 0.0 0.00 0.31 0.00 91 1013.9
20260507065403 54 0 0.0 0.0 0.00 0.31 0.00 92 1013.8
20260507064503 53 104 0.0 2.0 0.00 0.31 0.00 92 1014.0
20260507063603 53 90 0.0 2.0 0.00 0.31 0.00 99 1013.8
20260507062703 51 0 0.0 0.0 0.00 0.31 0.00 99 1013.7
20260507061803 51 0 0.0 0.0 0.00 0.31 0.00 99 1013.9
20260507060903 50 0 0.0 0.0 0.00 0.31 0.00 99 1013.8
20260507060003 49 0 0.0 0.0 0.00 0.31 0.00 99 1013.8
20260507055403 49 0 0.0 0.0 0.00 0.31 0.00 99 1013.7
20260507054503 49 0 0.0 0.0 0.00 0.32 0.00 99 1013.7
20260507053603 49 0 0.0 0.0 0.00 0.32 0.00 99 1013.5
20260507052703 49 0 0.0 0.0 0.00 0.33 0.00 99 1013.4
20260507051803 48 0 0.0 0.0 0.00 0.33 0.00 99 1013.4
20260507050903 48 0 0.0 0.0 0.00 0.34 0.00 99 1013.3
20260507050003 48 0 0.0 0.0 0.00 0.34 0.00 99 1013.3
20260507045403 48 0 0.0 0.0 0.00 0.34 0.00 99 1013.2
20260507044503 48 0 0.0 0.0 0.00 0.35 0.00 99 1013.0
20260507043603 48 0 0.0 0.0 0.00 0.35 0.00 99 1013.0
20260507042703 48 0 0.0 0.0 0.00 0.35 0.00 99 1013.1
20260507041803 48 0 0.0 0.0 0.00 0.35 0.00 99 1013.0
20260507040903 48 0 0.0 0.0 0.00 0.35 0.00 99 1013.0
20260507040003 48 0 0.0 0.0 0.00 0.35 0.00 99 1013.0
20260507035403 48 0 0.0 0.0 0.00 0.35 0.00 99 1013.0
20260507034503 48 0 0.0 0.0 0.00 0.35 0.00 99 1013.1
20260507033603 48 0 0.0 0.0 0.00 0.35 0.00 99 1012.9
20260507032703 48 0 0.0 0.0 0.00 0.35 0.00 99 1012.9
20260507031803 48 0 0.0 0.0 0.00 0.37 0.00 99 1013.0
20260507030903 48 0 0.0 0.0 0.00 0.37 0.00 99 1012.8
20260507030003 48 0 0.0 0.0 0.00 0.37 0.00 99 1012.9
20260507025403 48 0 0.0 0.0 0.00 0.37 0.00 99 1013.0
20260507024503 48 0 0.0 0.0 0.00 0.37 0.00 99 1013.0
20260507023603 48 0 0.0 0.0 0.00 0.37 0.00 99 1012.7
20260507022703 48 0 0.0 0.0 0.00 0.37 0.00 99 1012.8
20260507021803 48 0 0.0 0.0 0.00 0.37 0.00 99 1012.7
20260507020903 48 0 0.0 0.0 0.00 0.37 0.00 99 1012.8
20260507020003 49 0 0.0 0.0 0.00 0.37 0.00 99 1012.7
20260507015403 49 0 0.0 0.0 0.00 0.37 0.00 99 1012.7
20260507014503 49 0 0.0 0.0 0.00 0.37 0.00 99 1012.6
20260507013603 49 0 0.0 0.0 0.00 0.37 0.00 99 1012.6
20260507012703 49 0 0.0 0.0 0.00 0.37 0.00 99 1012.7
20260507011803 49 0 0.0 0.0 0.00 0.37 0.00 99 1012.6
20260507010903 49 0 0.0 0.0 0.00 0.37 0.00 99 1012.6
20260507010003 49 0 0.0 0.0 0.00 0.37 0.00 99 1012.7
20260507005403 49 0 0.0 0.0 0.00 0.37 0.00 99 1012.7
20260507004503 49 0 0.0 0.0 0.00 0.37 0.00 99 1012.6
20260507003603 49 0 0.0 0.0 0.00 0.37 0.00 99 1012.8
20260507002703 49 0 0.0 0.0 0.00 0.37 0.00 99 1012.7
20260507001803 49 0 0.0 0.0 0.00 0.37 0.00 99 1012.5
20260507000903 49 0 0.0 0.0 0.00 0.37 0.00 99 1012.5
20260507000004 49 0 0.0 0.0 0.00 0.37 0.00 99 1012.5
20260506235403 49 0 0.0 0.0 0.00 0.37 0.00 99 1012.6
20260506234503 49 0 0.0 0.0 0.00 0.37 0.00 99 1012.5
20260506233603 49 0 0.0 0.0 0.00 0.37 0.00 99 1012.5
20260506232703 49 0 0.0 0.0 0.00 0.37 0.00 99 1012.6
20260506231803 49 0 0.0 0.0 0.00 0.37 0.00 99 1012.6
20260506230903 49 0 0.0 0.0 0.00 0.37 0.00 99 1012.5
20260506230003 50 0 0.0 0.0 0.00 0.37 0.00 99 1012.5
20260506225403 50 0 0.0 0.0 0.00 0.37 0.37 99 1012.4
20260506224503 50 0 0.0 0.0 0.00 0.37 0.37 99 1012.4
20260506223603 50 0 0.0 0.0 0.00 0.37 0.37 99 1012.4
20260506222703 50 0 0.0 0.0 0.00 0.37 0.37 99 1012.3
20260506221803 50 0 0.0 0.0 0.00 0.37 0.37 99 1012.1
20260506220903 50 0 0.0 0.0 0.00 0.37 0.37 99 1012.1
20260506220003 50 0 0.0 0.0 0.00 0.37 0.37 99 1012.0
20260506215403 50 0 0.0 0.0 0.00 0.37 0.37 99 1012.0
20260506214503 50 0 0.0 0.0 0.00 0.37 0.37 99 1012.0
20260506213603 50 0 0.0 0.0 0.00 0.37 0.37 99 1012.1
20260506212703 50 0 0.0 0.0 0.00 0.37 0.37 99 1012.0
20260506211803 50 0 0.0 0.0 0.00 0.37 0.37 99 1012.1
20260506210903 50 0 0.0 0.0 0.00 0.37 0.37 99 1012.0
20260506210004 50 0 0.0 0.0 0.00 0.37 0.37 99 1012.0
20260506205403 50 0 0.0 0.0 0.00 0.37 0.37 99 1011.9
20260506204503 50 0 0.0 0.0 0.00 0.37 0.37 99 1012.0
20260506203603 50 0 0.0 0.0 0.00 0.37 0.37 99 1011.9
20260506202703 50 0 0.0 0.0 0.00 0.37 0.37 99 1011.8
20260506201803 50 0 0.0 0.0 0.00 0.37 0.37 99 1011.7
20260506200903 51 0 0.0 0.0 0.00 0.37 0.37 99 1011.5
20260506200003 51 0 0.0 0.0 0.00 0.37 0.37 99 1011.4
20260506195403 51 0 0.0 0.0 0.00 0.37 0.37 99 1011.3
20260506194503 51 0 0.0 0.0 0.00 0.37 0.37 99 1011.3
20260506193603 51 0 0.0 0.0 0.00 0.37 0.37 98 1011.2
20260506192703 52 0 0.0 0.0 0.00 0.37 0.37 98 1011.2
20260506191803 52 0 0.0 0.0 0.00 0.37 0.37 97 1011.0
20260506190903 52 0 0.0 0.0 0.00 0.37 0.37 97 1010.9
20260506190003 53 0 0.0 0.0 0.00 0.37 0.37 96 1010.9
20260506185403 53 0 0.0 0.0 0.00 0.37 0.37 95 1011.0
20260506184503 53 0 0.0 0.0 0.00 0.37 0.37 95 1010.6
20260506183603 53 0 0.0 0.0 0.00 0.37 0.37 95 1010.6
20260506182703 53 0 0.0 0.0 0.00 0.37 0.37 94 1010.5
20260506181803 54 0 0.0 0.0 0.00 0.37 0.37 93 1010.3
20260506180903 55 0 0.0 0.0 0.00 0.37 0.37 94 1010.4
20260506180004 55 0 0.0 0.0 0.00 0.37 0.37 94 1010.2
20260506175403 55 0 0.0 0.0 0.00 0.37 0.37 91 1010.1
20260506174503 56 0 0.0 0.0 0.00 0.37 0.37 94 1010.1
20260506173603 55 0 0.0 0.0 0.00 0.37 0.37 95 1010.0
20260506172703 54 0 0.0 0.0 0.00 0.37 0.37 97 1010.0
20260506171803 54 0 0.0 0.0 0.00 0.37 0.37 98 1009.9
20260506170903 54 202 0.0 2.0 0.00 0.37 0.37 98 1009.9
20260506170003 53 0 0.0 0.0 0.00 0.37 0.37 98 1009.8
20260506165403 54 0 0.0 0.0 0.00 0.37 0.37 98 1009.7